Regional Weather Roundup
Issued by NWS Goodland, KS

Home | Current Version | Previous Version | Text Only | Print | Product List | Glossary Off
Versions: 1 2 3 4 5 6 7 8 9 10 11 12 13 14 15 16 17 18 19 20 21 22 23 24 25 26 27 28 29 30 31 32 33 34 35 36 37 38 39 40 41 42 43 44 45 46 47 48 49 50

000
ASUS43 KGLD 181408
RWRGLD

GOODLAND FORECAST AREA HOURLY WEATHER ROUNDUP
NATIONAL WEATHER SERVICE GOODLAND KS
700 AM MST WED JAN 18 2017

...OFFICIAL OBSERVATIONS...

CITY           SKY/WX    TMP DP  RH WIND       PRES   REMARKS
GOODLAND KS    CLOUDY    26  23  88 W9        29.92F
HILL CITY KS   PTCLDY    29  28  96 CALM      30.00S
IMPERIAL NEB   CLOUDY    23  19  85 NW7       29.93F
MCCOOK NEB     CLOUDY    24  24 100 S5        29.97R
AKRON CO       CLOUDY    23  16  74 W14       29.93S WCI  11
BURLINGTON CO  CLOUDY    26  22  84 W9        29.92F
LIMON CO       CLOUDY    10   6  84 NW6       29.94S
$$

...UNOFFICIAL OBSERVATIONS...

CITY           SKY/WX    TMP DP  RH WIND       PRES   REMARKS
LENORA KS        N/A     26  32 100 CALM        N/A
SHARON SPRINGS   N/A     28  26  94 SW9         N/A
TRIBUNE KS     PTCLDY    27  25  93 SW7       29.98
TRENTON NEB      N/A     26  32 100 CALM        N/A
KIT CARSON CO    N/A     19  16  89 CALM        N/A
YUMA CO        FAIR      16  12  86 W14       29.93F WCI   1
$$



USA.gov is the U.S. government's official web portal to all federal, state and local government web resources and services.